[Date Prev][Date Next][Thread Prev][Thread Next] - [Date Index][Thread Index][Author Index]

2 Line ISS Keps 1-23



ISS
1 25544U 98067A   05022.99226852  .00026993  00000-0  22177-3 0  6507
2 25544  51.6470 283.2757 0009611  20.7747 166.5105 15.70179103352854
----
Via the sarex mailing list at AMSAT.ORG courtesy of AMSAT-NA.
To unsubscribe, send "unsubscribe sarex" to Majordomo@amsat.org



AMSAT Top AMSAT Home